Wind_Speed
5 5 5 5 6 6 6 5 5 4 3 3 2 2 2 2 2 2 4 6 6 6 5 5 5 7 8 7 6 4 2 4 4 3 2 2 3 3 4 4 4 3 3 3 2 3 4 5 5 5 6 6 6 5 5 5 5 5 5 6 6 7 5 4 4 5 7 7 5 4 3 6 4 2 1 3 5 5 4 6 6 5 7 8 6 3 3 8
6 6 6 6 6 6 6 6 5 4 4 3 2 1 1 1 1 2 4 5 5 6 5 5 5 6 7 6 5 3 4 6 3 4 4 4 4 4 4 4 4 4 3 2 1 3 5 5 5 5 6 7 6 4 5 5 6 7 5 5 7 7 4 6 6 7 7 7 6 3 2 4 4 3 1 4 3 5 5 4 6 4 7 10 9 6 4 8
8 7 6 6 6 6 6 6 5 4 3 2 2 2 2 2 2 3 4 5 5 5 5 5 5 5 6 5 3 2 3 5 2 5 6 5 5 5 5 4 4 4 3 2 2 3 5 5 5 6 7 7 6 5 5 5 6 8 6 6 5 4 5 5 5 5 5 6 8 4 1 3 3 3 1 4 6 4 3 7 3 7 4 5 7 7 6 8
8 8 8 7 7 7 7 6 6 5 4 3 3 3 3 3 4 4 4 4 4 5 5 6 6 6 5 5 2 1 2 4 3 4 5 4 5 5 5 4 3 3 3 2 2 3 4 5 5 5 7 7 6 5 6 6 5 4 5 8 4 4 6 3 4 4 4 4 7 5 2 2 0 1 3 5 7 1 10 15 11 14 12 5 1 5 6 8
8 8 8 8 9 9 8 8 7 6 5 4 4 4 5 5 5 5 5 4 4 4 5 6 6 6 5 4 1 2 2 3 1 3 6 4 4 5 5 4 3 3 3 2 2 2 3 5 6 6 7 7 6 6 7 7 5 4 7 11 7 5 6 2 5 3 3 3 4 4 3 2 2 2 5 8 7 7 12 15 13 11 10 8 4 0 3 6
7 7 7 8 9 9 10 9 8 6 6 5 5 5 5 5 5 5 5 5 4 4 5 6 5 5 5 3 2 1 1 0 2 4 5 4 4 5 4 3 2 2 2 1 1 3 4 6 7 7 7 6 6 6 4 7 6 6 7 8 5 3 5 2 3 2 2 3 4 2 3 3 2 3 10 14 12 11 13 13 12 9 8 7 5 5 6 7
6 6 7 7 8 9 10 10 9 7 7 7 7 6 6 5 5 5 4 5 4 5 5 5 5 4 3 2 3 3 3 3 3 4 5 5 6 5 5 3 3 3 1 1 2 5 5 7 8 7 7 5 6 6 3 5 7 7 7 5 2 1 4 2 1 3 2 3 3 3 4 3 2 3 10 16 16 15 14 13 12 10 8 9 11 11 11 11
6 6 6 6 7 8 10 10 8 7 7 8 8 8 7 6 6 5 5 4 4 4 5 5 3 4 2 2 3 3 5 4 3 4 6 7 7 6 6 4 3 4 3 2 4 5 5 7 7 5 7 4 3 4 3 4 9 9 7 4 2 2 2 0 0 1 1 2 1 2 3 3 5 6 13 18 17 16 14 14 14 14 15 16 16 15 15 14
5 5 5 6 7 8 9 9 8 8 9 9 9 8 7 7 6 6 5 5 4 4 6 5 3 3 3 2 4 3 4 5 5 5 7 8 8 6 6 5 5 4 4 4 3 3 4 5 5 4 6 4 2 2 3 5 5 6 5 3 3 3 0 1 2 1 0 1 1 2 1 7 6 6 13 20 18 15 14 16 17 18 21 21 20 19 18 18
5 5 5 6 6 7 8 9 10 11 11 11 10 8 7 6 5 5 5 5 3 4 5 4 3 4 6 3 5 2 4 6 7 8 9 9 8 7 7 6 6 4 4 5 4 3 4 4 4 5 6 4 3 3 4 4 1 1 4 5 7 5 1 2 2 0 1 1 1 1 4 9 7 5 9 18 17 14 15 18 19 22 24 23 23 22 21 22
6 6 6 6 6 7 8 9 11 13 13 11 10 8 6 5 4 4 4 4 3 4 4 3 3 6 8 7 4 3 5 7 10 11 11 10 10 9 8 7 6 6 4 4 5 4 4 4 3 4 4 2 3 4 5 5 3 1 4 7 7 5 2 0 0 1 1 3 1 2 9 10 12 10 10 16 14 13 17 19 21 23 24 24 25 25 24 25
7 7 7 7 7 8 8 10 12 14 13 11 10 11 8 6 4 3 2 2 2 2 2 3 4 6 8 11 12 7 7 9 10 12 12 11 11 9 8 7 7 7 5 4 5 5 4 3 3 4 4 3 2 3 3 3 4 4 4 6 6 7 5 3 3 2 1 3 3 4 7 10 13 13 14 14 10 12 17 19 21 22 23 24 25 26 26 26
8 8 8 8 8 9 10 11 12 13 14 12 11 13 11 8 5 4 3 3 2 2 2 3 4 6 6 8 12 12 10 10 11 11 11 10 10 9 8 8 7 7 5 4 4 5 4 2 2 4 5 5 3 2 2 3 4 5 5 4 6 6 4 5 4 2 3 3 2 3 1 7 12 15 17 14 9 13 18 19 20 20 22 23 24 26 27 27
8 8 8 9 9 10 10 12 12 13 13 13 12 13 13 9 6 5 5 4 3 2 2 3 5 8 8 5 10 16 11 10 15 14 11 8 8 9 8 8 7 7 5 4 4 4 3 2 1 2 3 3 3 3 4 5 4 3 3 3 3 4 2 7 6 4 3 3 1 3 2 5 11 16 17 13 11 15 18 19 19 20 21 22 24 26 27 28
7 8 8 9 9 10 11 12 13 13 13 13 12 12 13 9 6 6 6 5 4 4 3 4 7 7 7 5 8 15 11 12 18 16 13 10 8 7 8 9 7 6 5 4 4 3 3 2 2 2 1 1 3 4 4 5 4 3 3 2 1 2 2 7 9 9 6 4 1 4 2 6 11 16 16 13 13 17 19 19 19 20 20 21 22 24 25 26
6 6 7 7 8 9 11 12 13 13 13 12 11 11 11 9 8 7 5 6 8 8 5 6 9 6 4 4 8 14 12 15 20 18 16 14 10 8 8 8 6 5 5 4 3 2 3 2 1 1 1 2 3 4 6 5 4 2 2 4 3 3 3 3 8 10 9 5 2 2 3 5 8 14 15 14 14 16 18 18 18 19 20 20 20 22 23 24
5 5 6 7 8 8 10 12 12 12 11 11 10 9 10 10 9 7 7 12 15 15 11 8 7 6 7 9 10 13 12 14 22 22 19 16 11 7 7 7 4 4 4 3 3 2 2 2 2 2 1 2 5 5 5 4 1 1 3 5 4 3 5 2 4 8 11 6 3 8 9 7 8 12 15 14 14 16 18 18 18 18 19 20 20 21 22 23
5 5 6 7 8 8 10 11 11 11 10 10 9 6 8 12 13 10 8 9 11 11 11 9 4 4 7 13 12 12 10 13 23 24 22 17 9 6 7 5 3 2 1 1 2 2 2 2 3 1 3 5 8 6 4 5 4 5 6 5 5 4 4 3 4 7 10 4 4 10 11 10 10 10 14 14 14 17 17 17 18 18 19 19 20 21 21 22
5 5 6 7 8 9 10 11 11 10 10 10 8 4 5 11 16 16 13 12 12 7 6 10 9 2 3 12 14 10 6 12 22 23 21 16 8 7 8 6 4 3 2 2 3 4 4 1 1 3 6 6 8 6 5 5 5 7 6 5 6 5 3 5 5 4 6 4 4 9 9 10 10 10 12 13 14 16 16 16 16 17 18 18 19 19 19 21
5 6 7 8 9 9 10 11 10 10 10 9 7 3 2 4 7 11 18 23 22 15 10 12 12 6 4 11 15 12 7 9 18 23 20 14 8 6 7 4 1 1 3 2 4 5 4 4 5 5 6 7 8 7 6 5 5 6 5 5 5 3 4 5 4 3 3 4 5 12 11 11 10 9 11 12 13 15 15 15 15 15 16 17 17 18 18 18
6 6 7 8 9 9 10 12 11 11 11 8 5 2 0 2 4 6 14 19 18 17 17 18 16 11 9 13 15 15 11 7 13 24 20 12 9 4 5 6 2 1 6 2 1 4 5 6 7 6 6 6 6 5 5 5 4 4 4 4 3 3 6 4 3 3 2 4 5 13 12 11 10 9 11 12 12 13 14 14 14 15 15 16 16 16 16 16
6 7 7 9 10 10 12 11 11 11 10 7 4 4 3 5 8 10 12 12 13 15 16 18 17 13 12 14 14 14 14 9 12 25 22 14 13 8 6 8 5 5 6 1 2 3 6 7 7 8 6 5 5 5 6 5 4 3 3 4 4 5 7 1 6 3 3 4 4 12 11 9 10 10 11 12 12 12 12 12 12 13 13 14 14 14 13 13
7 8 9 10 10 11 12 10 9 9 7 6 6 6 6 10 13 13 12 10 9 12 13 14 16 16 14 13 12 12 15 14 13 24 26 19 14 10 9 8 7 7 9 8 5 4 5 7 8 8 7 6 4 9 10 5 2 4 7 5 5 7 7 2 2 3 5 3 2 9 10 7 8 10 11 12 12 11 11 12 12 13 13 12 11 11 11 12
9 9 9 10 10 11 11 8 8 7 6 7 7 7 7 11 13 13 9 6 6 8 11 12 15 19 18 15 13 10 12 16 15 20 24 21 14 7 7 7 5 7 8 10 12 10 7 6 8 8 5 5 5 10 13 7 1 6 8 7 6 8 9 6 7 9 3 3 1 3 6 6 6 7 8 9 10 11 11 11 12 12 12 11 11 11 11 11
10 9 9 10 9 10 9 6 7 7 6 6 7 6 6 10 12 10 4 3 5 6 9 9 12 17 20 18 13 5 5 12 18 20 20 21 16 6 3 5 5 6 5 6 10 10 9 7 8 7 5 7 7 8 11 9 4 3 6 8 7 9 10 10 10 10 3 4 2 3 2 2 6 7 6 6 7 8 8 9 10 9 9 9 9 9 9 9
10 9 9 9 8 9 7 4 7 8 6 6 7 5 2 7 12 9 2 2 3 6 9 8 8 13 16 18 16 3 3 7 15 20 19 17 17 8 3 4 4 5 4 4 6 4 8 10 9 8 8 9 8 8 11 10 6 3 6 7 7 8 9 10 9 7 3 3 2 3 5 1 5 6 6 6 6 7 7 6 7 6 6 6 6 6 6 7
10 9 9 8 8 8 5 3 7 9 6 6 7 4 1 4 12 9 3 2 3 5 7 8 7 11 12 17 20 4 1 7 8 17 21 15 16 11 6 6 4 6 3 2 3 3 7 12 11 11 10 8 8 7 9 10 5 4 8 7 7 8 8 8 7 5 2 2 2 4 8 4 1 6 6 7 7 6 6 5 5 5 5 5 5 5 5 5
9 8 8 8 8 8 7 5 7 9 7 7 7 4 1 6 12 6 3 1 3 5 5 6 6 11 10 12 19 11 4 10 6 13 22 16 14 9 8 9 6 10 8 1 3 4 5 10 10 12 10 7 7 5 7 9 5 5 9 8 6 7 7 6 6 4 3 2 2 6 10 6 1 6 6 6 4 5 5 4 4 5 4 3 3 3 3 4
9 9 9 9 9 9 8 8 8 9 8 7 6 4 4 9 9 4 3 1 3 3 4 6 5 11 13 7 14 14 10 11 7 11 17 16 15 9 7 7 6 11 16 10 7 4 4 6 6 9 8 7 6 5 5 7 5 8 12 8 4 5 5 5 4 3 3 3 1 8 10 7 2 4 4 3 1 2 4 4 4 5 4 2 1 1 3 4
9 10 10 11 10 10 9 9 9 8 8 7 5 5 9 9 5 3 0 1 3 3 4 7 5 9 14 8 9 12 11 10 10 11 12 14 17 14 7 4 5 6 10 13 9 5 4 3 3 7 6 7 7 6 6 5 9 13 13 8 6 5 4 5 3 3 4 1 4 8 11 8 2 3 3 2 2 1 2 4 5 6 5 3 1 2 4 5
9 10 11 12 10 11 10 9 9 8 8 6 3 7 9 5 1 1 2 1 3 4 4 5 6 7 10 7 7 10 8 8 11 11 10 10 14 17 10 4 6 1 6 7 6 5 4 3 2 4 8 11 8 6 6 8 9 10 8 7 3 3 2 3 2 3 5 4 4 8 12 9 5 2 4 3 2 0 2 4 6 7 6 4 2 2 3 5
9 11 12 12 10 11 11 9 9 8 8 5 4 7 5 1 3 3 3 2 3 5 4 2 6 7 6 4 6 8 5 6 10 9 8 8 8 13 11 7 7 2 2 4 2 6 5 6 4 2 8 16 11 4 1 3 7 11 8 9 7 3 4 4 4 5 5 4 4 9 10 6 2 3 3 3 3 1 2 4 6 7 6 5 4 3 3 5
8 12 13 12 11 11 10 9 10 9 7 4 6 5 2 1 5 3 3 4 2 3 3 2 5 7 6 4 5 7 3 4 9 7 5 7 7 8 10 12 13 6 3 6 2 1 2 5 8 4 6 15 13 7 5 4 8 10 8 8 6 5 5 5 5 5 5 5 6 8 6 2 0 4 4 3 3 3 4 5 7 7 6 5 4 4 4 6
8 13 14 12 12 11 10 9 9 8 6 6 5 2 3 5 4 1 1 4 3 2 3 3 5 5 2 4 4 5 2 4 7 8 6 6 6 7 8 12 16 10 5 4 3 4 1 3 9 7 4 10 11 7 4 5 5 6 6 6 4 4 4 5 6 6 6 8 8 5 1 2 3 3 6 5 4 4 5 6 6 7 6 5 4 4 5 7
8 13 13 12 12 11 10 10 8 6 9 7 2 3 6 5 2 1 2 3 2 4 4 2 5 4 2 4 2 4 3 3 4 6 8 8 7 7 7 9 14 11 5 3 3 3 2 4 4 5 5 8 10 8 6 6 4 3 5 4 4 4 3 4 6 6 6 8 6 2 1 2 2 4 6 5 5 5 5 6 7 7 6 6 6 5 7 9
8 12 14 14 14 12 12 12 8 7 7 3 5 7 5 3 2 3 4 3 3 5 7 3 3 4 3 2 3 6 4 2 3 2 4 7 8 9 8 5 10 11 6 4 3 1 1 3 3 2 4 6 7 8 11 10 5 3 4 5 4 4 4 4 6 6 6 7 4 3 3 1 2 3 5 5 5 5 6 8 9 8 7 6 8 8 9 9
7 12 16 18 16 13 13 15 12 12 11 8 7 6 3 2 3 3 4 5 4 4 6 3 2 4 4 3 4 8 7 3 4 4 2 3 4 9 9 5 7 10 7 4 2 2 3 0 3 0 1 3 1 2 9 13 8 4 3 6 5 4 3 3 5 5 6 6 5 6 8 5 4 1 4 7 6 6 7 9 10 9 8 8 9 9 10 10
8 12 16 19 19 14 10 11 11 15 18 13 8 6 2 2 3 3 4 5 4 3 4 4 3 2 4 4 3 7 9 5 4 4 3 2 3 7 8 4 6 10 8 6 3 2 3 1 3 1 0 3 3 3 3 9 9 5 1 5 5 2 2 4 4 4 6 6 6 8 8 7 5 1 4 4 3 4 6 6 9 10 10 9 9 11 11 11
6 10 13 16 17 18 12 8 11 15 14 9 5 5 3 3 3 4 4 4 3 3 3 4 3 2 4 4 3 4 6 6 6 4 3 3 3 6 7 5 6 9 9 7 4 2 3 2 1 2 2 2 3 1 2 3 6 4 1 3 3 2 3 4 3 3 5 6 7 8 8 5 2 3 3 1 2 3 4 5 7 10 10 9 11 13 13 14
4 6 10 11 12 14 12 16 22 19 10 6 5 3 2 3 3 4 5 3 2 3 3 3 3 3 3 3 2 3 4 5 6 4 4 5 2 4 7 6 6 9 10 6 3 4 3 2 2 2 4 2 0 3 4 4 4 5 4 4 4 3 2 2 3 1 3 6 6 7 9 5 4 4 2 3 2 2 2 3 5 8 9 11 13 15 15 16
4 3 8 13 10 7 11 19 21 13 5 6 6 4 2 2 2 3 5 3 3 4 4 3 3 3 3 2 2 3 3 3 5 4 3 5 4 3 6 7 6 8 8 4 2 5 3 2 4 2 1 0 2 4 3 3 4 4 4 3 4 3 2 4 3 1 1 5 5 6 10 6 2 3 2 2 3 3 4 5 6 8 11 13 15 16 16 18
7 3 6 12 10 10 17 18 10 6 5 5 5 4 3 2 2 2 3 2 2 2 2 2 4 4 3 3 2 3 3 3 4 4 3 5 6 4 5 8 6 5 5 2 1 3 3 3 4 3 1 3 5 5 2 3 3 2 2 2 2 2 2 4 5 3 3 4 3 6 10 5 3 4 2 2 3 3 3 5 8 10 13 15 17 18 19 20
11 7 6 7 7 12 18 12 5 6 6 3 4 5 4 3 2 2 2 2 1 0 1 2 2 3 3 3 3 2 3 3 3 4 3 3 5 3 4 8 7 5 4 1 1 2 1 2 4 3 1 3 5 5 3 1 1 2 1 3 2 2 2 3 5 5 5 6 5 6 9 5 2 2 1 1 2 2 3 6 10 12 15 16 18 20 21 22
19 16 15 9 5 8 10 5 4 6 4 4 6 5 4 5 5 4 3 4 3 1 2 3 2 3 3 2 2 2 2 2 2 3 2 2 3 2 4 8 7 5 4 2 3 4 2 2 4 4 2 0 2 2 3 4 3 3 1 1 1 1 1 2 3 3 4 6 4 6 9 5 2 4 3 2 3 6 8 10 13 15 18 19 20 21 21 22
14 16 19 18 14 14 11 7 6 7 5 6 6 3 3 4 4 5 4 4 4 3 3 2 1 2 2 0 0 3 2 2 2 2 2 2 2 1 3 6 7 6 4 4 5 5 3 3 3 4 5 4 4 4 2 2 3 3 1 2 3 3 3 2 3 4 5 3 2 6 10 9 4 4 5 7 8 10 13 17 18 19 20 20 21 22 22 23
5 5 9 15 21 22 17 12 9 6 5 5 4 3 2 2 2 3 3 3 4 3 3 3 1 2 1 1 1 3 4 4 3 2 2 1 2 1 2 4 5 5 4 5 6 3 2 1 2 3 5 6 7 7 4 3 6 7 4 3 4 4 5 3 4 5 4 5 6 9 11 14 14 11 13 16 15 13 16 20 21 21 21 22 23 23 24 24
5 3 2 4 11 14 12 10 8 4 2 1 2 2 3 3 2 1 2 2 3 2 1 3 2 1 2 2 0 2 3 3 4 4 1 1 0 0 1 2 4 4 3 4 5 3 3 2 2 2 6 9 10 11 9 5 7 10 9 7 6 5 7 6 8 8 5 6 9 9 10 14 16 15 18 19 15 12 16 21 22 22 23 24 25 25 25 24
6 5 4 3 4 4 5 6 6 6 5 3 2 1 2 4 3 1 2 1 1 1 0 1 4 4 3 2 2 1 2 2 3 2 1 1 1 2 3 2 1 4 3 2 4 3 3 2 2 1 7 11 12 12 10 8 8 10 10 11 11 9 9 10 12 12 7 7 12 13 15 17 17 18 18 16 14 14 19 23 24 24 26 26 26 27 25 23
12 9 7 7 6 4 5 6 5 6 6 4 3 2 2 3 3 2 2 1 1 2 3 1 3 3 2 3 3 1 2 1 1 2 2 1 1 2 2 3 1 3 3 2 4 3 2 1 2 0 8 12 10 7 6 7 9 10 12 13 12 12 13 13 14 13 12 14 16 18 21 20 16 15 12 11 15 20 22 25 26 26 27 27 27 27 25 22
10 10 10 13 12 7 6 5 2 4 4 2 2 2 1 1 2 2 1 2 1 2 4 2 2 1 1 3 3 0 0 2 1 1 3 3 2 2 1 0 0 2 3 2 2 3 2 1 2 0 6 8 4 2 4 8 10 13 15 14 11 11 12 13 14 12 13 16 17 18 21 17 13 14 15 15 19 21 23 27 28 27 27 27 28 27 24 22
15 18 19 16 8 3 3 2 1 1 3 2 2 2 0 1 2 2 2 3 3 3 4 3 1 1 1 3 3 2 2 2 2 1 3 2 0 0 0 2 1 1 2 2 1 3 2 1 1 1 6 5 1 1 7 10 12 14 15 13 11 11 11 10 11 10 11 13 15 16 16 11 10 17 21 20 21 22 25 28 28 27 26 27 27 26 22 20
20 19 17 14 6 2 2 1 1 1 3 3 2 1 0 2 1 1 1 2 2 2 2 2 2 2 2 2 2 2 1 1 1 2 3 2 2 2 2 2 2 1 1 1 0 1 2 3 2 1 5 4 1 4 10 11 9 7 6 7 10 12 11 11 11 12 12 11 11 12 11 10 14 20 19 18 21 24 26 27 26 26 28 27 25 22 19 19
Wind_Direction
58 54 51 52 49 48 48 50 55 57 60 59 70 87 71 48 38 28 16 10 9 11 12 18 12 360 0 357 2 20 90 94 64 42 59 18 8 356 342 350 347 335 306 292 286 275 268 241 231 243 242 225 227 234 234 236 234 234 239 244 252 256 270 331 315 339 339 331 26 71 27 324 328 83 304 294 228 217 234 213 208 217 226 247 241 215 192 183
66 66 65 60 55 51 51 52 55 55 55 52 59 56 6 5 12 8 2 5 11 16 19 16 3 358 2 2 15 49 99 109 85 27 37 31 20 9 358 356 350 353 342 319 292 257 252 240 231 237 235 224 211 217 235 219 215 231 242 249 252 267 319 12 347 344 341 326 339 6 31 321 325 18 317 293 256 205 247 232 200 234 232 239 244 227 202 181
67 69 69 64 59 54 53 51 49 46 36 26 13 332 334 332 332 340 345 353 4 14 17 9 3 1 2 7 31 80 104 139 135 11 23 25 23 18 3 350 347 348 345 330 289 248 248 242 232 232 233 233 209 206 228 193 207 233 241 256 262 304 325 4 356 344 357 331 315 324 29 296 311 360 280 297 301 228 30 29 39 350 347 213 239 242 214 184
64 64 65 63 60 55 50 45 38 30 13 355 329 313 309 302 307 314 324 339 351 4 7 6 5 2 5 10 25 117 120 168 175 359 355 10 19 16 10 4 354 339 332 328 302 264 250 235 229 229 235 239 209 211 226 189 201 225 223 255 290 355 317 10 43 1 3 330 309 312 294 276 50 14 303 315 309 323 32 18 10 1 13 58 318 264 216 184
60 60 61 61 57 51 44 37 30 21 11 358 339 322 306 300 299 300 310 319 330 345 349 359 3 1 7 15 50 143 190 195 147 347 334 358 9 10 19 10 360 352 338 320 315 290 252 219 218 218 230 239 209 216 224 191 204 247 235 255 285 319 299 28 60 9 354 311 294 286 297 351 37 47 19 12 6 17 7 350 347 348 356 19 29 281 168 156
54 53 56 56 50 42 35 28 21 14 8 359 352 343 325 313 301 299 303 305 318 325 330 345 353 1 4 19 67 99 238 283 22 337 331 355 353 4 12 6 20 11 341 360 10 263 236 213 219 220 229 240 221 220 209 181 202 250 246 249 273 291 284 1 45 340 343 299 294 306 350 357 320 68 57 40 29 11 1 353 350 343 339 8 59 89 106 116
39 39 43 43 36 30 23 16 12 9 5 0 355 346 335 326 313 306 299 297 311 315 328 337 343 2 6 45 85 91 80 52 5 333 341 349 341 349 349 354 29 18 360 351 301 252 239 226 232 236 242 247 233 225 180 183 209 239 263 250 225 262 274 339 22 317 328 283 315 353 323 326 338 59 59 39 27 14 12 17 20 27 36 58 76 81 91 96
23 26 29 26 22 16 11 9 9 5 358 353 347 340 329 322 316 310 302 300 310 318 336 339 346 360 360 77 126 131 84 44 357 350 350 345 340 340 334 343 10 9 1 314 264 245 245 240 247 250 250 254 237 222 172 218 219 222 261 266 223 250 254 25 32 293 315 263 291 303 279 47 55 73 60 35 22 20 26 35 44 55 63 69 72 75 81 81
24 25 24 20 13 5 6 12 13 4 353 344 339 335 326 321 312 305 299 300 317 327 339 351 4 3 26 78 210 194 63 9 347 356 348 345 342 338 332 342 353 351 343 323 282 255 260 251 255 257 270 286 258 228 187 237 229 211 264 291 261 268 211 344 318 230 263 271 198 252 131 76 70 103 63 32 20 25 40 51 57 63 64 66 67 69 71 72
39 34 30 22 13 12 19 21 16 5 356 349 344 339 330 322 311 300 290 291 309 321 335 357 8 26 42 12 256 240 26 352 348 346 337 339 339 342 340 337 341 338 326 314 310 296 284 279 269 258 275 277 240 221 190 232 276 199 282 290 273 278 325 299 323 66 222 115 151 280 88 76 56 80 43 18 18 32 51 58 60 64 64 64 66 66 66 67
47 42 37 30 29 34 33 25 17 11 6 5 5 4 354 339 328 312 294 290 296 316 341 16 26 56 57 26 17 41 359 343 345 339 333 337 338 340 337 331 331 327 318 311 310 296 280 285 282 267 266 236 214 200 198 239 270 278 290 286 259 218 151 245 96 47 199 121 74 98 98 73 48 50 19 6 16 41 58 61 62 64 65 64 64 64 63 63
55 52 48 45 47 44 35 25 18 16 16 19 21 17 10 5 2 352 334 325 317 332 17 48 38 80 82 50 49 33 348 347 344 342 341 339 339 338 333 330 327 320 316 312 305 297 290 282 274 284 291 293 270 201 204 234 250 263 266 283 267 199 161 78 78 65 86 99 94 140 113 70 49 38 14 9 25 56 64 63 63 64 65 65 64 65 63 62
63 59 56 54 49 40 30 22 17 17 17 19 18 13 13 15 21 30 34 30 17 21 69 68 58 96 104 64 44 19 4 10 2 353 345 335 334 334 332 328 322 319 310 285 289 298 303 300 289 289 287 291 300 300 282 232 235 259 239 268 291 235 178 81 71 103 94 84 118 210 164 67 50 31 16 17 44 67 68 65 66 67 66 67 66 66 65 62
61 58 55 50 42 31 23 17 14 13 12 13 13 12 14 18 36 45 35 26 16 26 66 73 88 92 91 88 38 21 21 20 10 0 347 337 336 334 331 327 319 317 313 286 285 300 310 331 357 298 291 310 300 288 270 221 214 252 233 221 271 273 131 90 48 36 73 77 120 281 302 76 47 27 21 30 61 72 72 70 69 70 69 69 68 68 67 64
55 54 48 41 33 23 18 15 11 9 8 8 7 8 13 22 41 29 14 23 44 65 77 96 111 101 85 91 24 17 26 21 11 4 357 352 348 340 327 325 320 315 328 324 305 313 345 358 324 295 312 301 251 258 269 235 214 243 272 249 237 323 81 92 54 33 36 39 333 297 332 92 52 28 28 42 65 74 74 73 70 71 71 71 71 69 69 67
48 46 39 31 23 18 14 10 8 7 5 5 4 4 11 27 35 20 32 64 71 73 83 106 109 106 79 58 10 12 21 17 11 8 4 358 352 339 329 336 333 320 329 333 337 342 350 349 299 271 265 258 261 285 291 266 213 183 291 321 334 339 337 58 69 44 22 2 329 355 43 82 54 34 37 50 64 74 76 74 71 71 72 72 72 72 71 68
38 34 26 18 12 9 4 2 4 6 5 5 4 3 18 34 34 38 80 88 79 71 76 98 110 110 66 32 6 3 5 10 13 12 5 357 352 343 340 346 338 337 344 352 17 6 345 337 219 185 222 350 356 323 296 296 287 44 351 329 335 344 322 333 89 37 12 351 20 73 79 71 58 46 47 53 63 74 76 75 75 74 75 75 74 74 72 69
25 18 11 7 2 1 358 358 3 7 6 7 6 8 34 47 50 61 96 102 79 65 65 59 54 132 62 23 360 346 352 14 16 11 4 355 356 6 358 358 5 360 313 311 34 336 305 279 240 266 33 23 14 355 337 352 342 332 336 328 328 333 324 356 63 17 4 360 62 84 92 78 65 59 57 58 65 74 77 76 78 79 78 79 78 76 74 71
9 5 3 358 355 359 359 359 2 5 7 10 10 10 52 66 66 66 76 83 72 60 48 30 19 48 28 6 359 353 4 25 18 9 3 360 14 28 18 35 64 51 270 247 50 9 330 323 295 15 25 9 8 7 352 352 334 315 314 309 313 317 335 34 59 29 4 360 79 86 87 79 68 61 61 63 70 75 78 80 79 80 80 80 80 79 77 74
348 351 353 352 356 360 358 358 359 360 5 12 15 16 82 99 81 62 64 70 71 74 66 45 41 54 35 5 8 19 24 19 17 9 5 12 27 31 19 21 178 75 21 337 36 29 358 52 53 24 10 354 352 351 335 326 319 307 297 291 299 319 351 23 65 101 14 350 89 94 84 79 69 62 65 66 76 77 77 80 81 83 84 83 84 82 80 78
333 340 344 353 357 355 356 357 357 359 5 13 25 48 87 197 159 96 73 68 66 70 61 50 51 49 34 17 17 32 27 7 11 9 13 22 18 18 6 356 260 36 36 15 83 71 48 57 45 8 355 338 328 325 315 304 296 286 291 306 321 12 349 357 110 133 8 345 103 105 89 80 73 66 68 65 69 72 73 80 84 87 88 87 87 85 83 82
330 335 340 352 351 349 354 355 357 1 4 14 47 76 90 135 137 115 99 86 63 58 54 47 47 36 22 18 24 38 27 11 4 8 19 28 21 28 0 7 51 36 29 59 192 113 66 49 20 359 341 304 306 332 313 278 275 315 352 338 347 6 341 343 145 166 341 343 131 115 94 83 83 74 68 65 65 66 69 77 80 86 92 91 89 88 88 84
343 340 340 344 343 346 351 354 1 4 8 25 51 70 100 132 134 119 111 110 74 52 46 44 42 29 18 14 23 46 37 25 4 1 15 24 25 31 10 14 58 49 40 48 52 69 59 31 360 339 312 297 349 13 350 298 227 43 26 358 344 355 339 317 167 293 340 359 146 117 105 103 99 87 75 71 75 78 76 78 80 81 87 92 93 91 89 81
354 350 343 339 341 346 348 354 0 4 21 33 46 65 109 139 142 131 117 113 93 51 32 37 34 24 18 8 15 47 51 40 19 1 11 19 14 20 21 9 34 59 56 54 67 74 59 20 339 315 304 338 17 24 9 344 24 78 48 7 335 337 329 310 308 309 325 107 180 141 126 127 111 96 87 82 82 85 84 86 88 86 89 94 93 85 79 73
357 354 346 342 346 347 347 354 359 9 26 29 37 50 111 153 161 149 137 141 98 31 8 25 26 16 12 7 11 38 77 43 23 8 12 18 15 16 41 7 11 50 52 54 76 75 48 19 335 328 3 22 26 30 15 346 324 81 54 8 330 320 315 306 312 308 276 134 160 263 270 115 107 94 94 97 86 86 89 91 94 94 97 96 88 81 71 65
357 354 352 349 348 348 350 348 355 8 15 19 25 26 96 173 186 173 190 214 91 12 354 7 12 10 10 10 4 337 149 38 16 13 14 21 26 25 14 19 40 45 37 61 86 79 27 15 358 2 17 23 31 33 14 349 322 360 16 354 325 313 306 303 312 306 303 69 72 324 335 357 118 97 99 109 98 95 95 95 102 104 105 101 89 81 66 56
355 355 353 349 347 356 7 338 348 8 10 6 12 11 50 173 179 175 244 230 81 5 350 358 3 13 18 17 12 4 195 349 353 16 16 25 36 38 39 37 51 42 23 205 83 58 12 15 16 13 16 25 30 24 4 346 328 352 354 340 321 310 303 305 301 289 333 63 142 29 360 316 139 95 111 121 110 112 110 106 119 121 120 112 92 77 60 48
354 354 351 349 352 3 9 353 352 6 9 5 11 20 95 162 163 171 262 210 36 351 352 359 4 17 17 24 30 52 41 350 348 10 11 24 32 39 63 43 36 37 27 208 110 69 23 26 19 5 15 31 23 10 346 334 334 347 335 326 320 305 293 293 288 290 330 258 192 35 7 325 35 108 148 156 126 126 136 140 149 149 145 131 99 67 40 21
351 351 354 355 358 3 3 0 359 3 10 13 18 41 124 145 154 197 263 140 18 352 13 7 3 3 359 20 41 46 38 21 19 357 7 28 26 34 75 42 37 47 43 61 98 103 65 47 15 4 19 14 354 335 322 332 334 320 312 299 268 275 271 264 285 312 297 267 9 27 9 342 27 117 163 188 121 108 146 160 173 172 167 157 129 18 350 337
349 351 360 358 359 2 358 360 360 360 12 18 30 94 129 134 159 224 289 56 1 1 5 9 8 343 349 21 44 29 32 34 12 354 15 33 27 38 69 39 24 64 73 74 85 110 135 143 24 21 12 338 321 298 279 281 295 296 298 290 236 223 235 234 263 313 290 313 48 20 1 339 313 107 81 39 42 23 193 183 182 182 182 181 197 329 322 317
351 354 358 358 358 359 360 3 358 358 12 15 69 126 136 130 271 246 64 21 323 1 358 5 11 349 359 30 31 13 27 34 9 4 22 27 25 30 37 26 2 17 134 89 93 117 111 124 79 32 3 342 316 281 243 245 299 317 322 335 308 213 229 256 301 348 329 358 40 10 352 323 289 98 80 73 78 333 214 192 189 186 186 190 212 303 305 306
359 359 358 358 358 357 359 358 354 359 5 12 122 150 170 130 35 41 28 315 289 5 14 354 357 350 347 10 23 9 5 23 15 12 15 15 33 35 37 33 355 316 116 36 116 137 87 67 64 63 18 6 350 334 273 245 351 6 6 5 5 8 6 341 347 357 336 340 360 353 345 315 301 87 99 114 114 145 173 181 191 190 194 203 220 265 296 311
7 4 2 359 356 356 356 355 359 1 360 37 135 163 236 54 62 50 347 345 4 9 346 294 319 326 318 333 16 2 336 23 15 8 12 19 43 51 49 35 9 347 353 358 360 166 130 80 41 28 23 13 11 20 17 354 9 17 10 9 19 16 359 340 340 340 321 317 325 335 336 285 128 113 143 144 135 164 175 182 191 195 207 220 237 265 290 311
17 9 6 1 355 356 357 357 358 6 37 89 146 174 47 67 74 121 336 7 25 343 318 306 298 298 11 53 20 352 5 68 27 18 28 31 39 36 30 24 14 1 329 338 8 350 318 84 22 12 9 11 26 40 353 310 336 19 11 359 31 32 353 332 332 327 316 313 310 308 284 295 325 125 143 146 151 168 186 193 197 206 219 233 251 278 302 305
22 13 12 8 5 8 10 10 17 50 78 89 87 51 64 74 69 36 13 355 352 329 320 318 299 292 97 91 56 19 21 55 42 38 45 43 45 29 8 8 9 2 339 339 2 357 69 96 35 33 45 27 36 37 358 318 309 19 8 354 35 22 322 299 302 292 289 300 302 269 217 350 27 128 140 147 167 185 205 208 212 225 234 250 264 278 306 308
34 24 24 22 21 28 29 28 47 89 91 77 66 62 60 62 27 12 10 333 315 322 307 293 325 346 36 65 48 33 16 17 1 7 67 65 57 33 15 12 6 3 2 2 9 357 40 105 118 107 80 56 42 31 26 16 337 321 3 7 3 324 296 295 299 289 277 286 306 312 298 353 124 155 157 165 188 209 223 225 229 239 245 263 274 278 298 307
40 32 31 33 36 42 49 51 71 96 83 66 75 71 54 62 26 1 4 335 307 303 304 319 25 360 3 20 33 8 341 336 349 344 55 75 48 18 8 21 15 8 8 349 28 55 341 98 130 174 107 97 56 11 56 48 14 340 15 359 321 269 254 287 304 314 304 295 304 312 308 293 275 262 159 182 217 238 241 239 237 241 248 266 281 284 293 302
52 41 35 35 40 44 55 65 79 90 81 71 83 85 61 63 34 3 359 334 296 280 321 21 41 352 358 7 23 356 338 343 353 356 34 38 41 18 2 11 12 9 6 332 323 47 323 273 127 83 107 147 205 239 85 70 53 49 25 335 325 275 286 311 313 318 312 303 301 308 312 298 284 308 133 178 240 270 273 265 246 241 246 265 287 293 296 301
54 43 31 33 48 50 54 90 95 85 79 72 84 91 65 69 59 10 351 330 294 296 360 39 23 21 30 2 354 5 358 6 2 359 24 12 35 37 18 2 345 353 356 338 336 355 307 297 110 133 132 174 212 267 353 46 62 57 354 347 3 329 315 329 323 301 301 303 305 309 311 315 358 80 94 34 348 315 303 291 256 243 244 265 291 297 297 302
67 54 29 30 58 61 69 93 83 69 67 65 69 78 63 87 83 16 10 17 337 346 27 33 356 15 35 8 12 16 5 19 17 20 35 16 28 69 39 11 332 337 334 319 349 359 302 294 344 125 142 185 248 49 18 2 16 8 360 13 2 331 289 283 276 259 302 300 303 307 302 315 50 79 75 22 358 317 292 282 253 243 251 271 288 294 294 299
80 77 31 34 53 78 85 80 66 52 63 76 71 79 72 87 90 35 30 43 32 27 38 32 19 21 8 2 39 13 359 33 32 30 46 29 24 61 37 7 332 327 322 299 356 4 336 305 314 300 190 316 85 79 40 20 23 11 4 2 349 347 329 300 299 103 289 284 289 296 292 302 54 89 58 350 300 277 269 268 257 255 265 275 283 290 292 298
72 57 32 47 59 83 86 73 43 32 74 76 65 73 80 82 77 51 36 26 20 39 60 48 30 24 13 10 17 5 3 25 28 29 58 49 32 29 19 0 333 311 316 315 39 3 335 303 295 285 342 46 97 110 88 47 45 55 50 24 341 322 321 309 316 336 308 278 270 272 276 287 91 101 36 329 278 259 253 268 270 270 278 282 287 293 296 300
65 48 40 62 75 83 85 80 48 54 69 87 80 67 68 63 49 65 56 22 357 350 56 63 24 19 30 7 344 360 13 15 30 38 72 82 56 42 6 355 339 311 315 333 53 350 315 307 303 273 158 117 131 143 156 184 251 231 141 47 3 326 360 328 308 320 304 278 279 275 271 275 120 128 315 308 263 253 258 279 284 285 289 292 295 299 300 303
71 60 48 48 81 92 83 81 93 87 92 116 99 81 79 65 42 48 46 23 17 347 19 65 49 23 33 358 348 18 6 7 55 52 56 77 63 40 349 351 353 353 360 7 349 340 340 353 325 302 296 188 177 194 211 217 242 273 293 55 74 111 37 306 280 279 270 265 271 277 280 286 148 167 196 188 226 255 270 286 294 297 297 297 299 301 302 304
73 62 53 55 79 93 87 87 106 114 121 116 100 84 88 76 44 42 49 39 34 5 4 69 58 3 32 304 24 63 25 355 38 71 68 74 84 74 341 350 358 8 19 356 328 321 318 337 340 327 329 333 326 325 322 277 280 299 276 176 169 171 190 248 275 267 268 276 258 259 275 289 282 256 286 304 294 282 288 300 305 303 300 300 301 303 305 306
73 67 55 59 72 80 83 87 92 109 125 119 98 63 52 93 78 52 57 66 57 34 28 51 300 277 10 308 193 92 55 36 56 105 104 73 100 89 341 350 359 358 2 354 342 320 272 308 6 337 298 295 307 309 320 324 295 294 288 233 208 175 177 226 268 265 291 321 285 261 272 289 296 302 311 314 313 306 303 307 308 305 303 304 303 305 307 306
73 62 35 61 70 72 75 69 56 74 101 69 84 56 34 83 118 104 75 69 63 67 69 60 42 343 5 358 239 109 90 76 76 85 77 333 85 134 305 325 356 357 356 356 355 322 261 266 47 347 275 269 284 289 293 294 276 282 291 279 261 211 181 198 235 254 303 314 277 277 292 292 294 304 311 313 316 313 308 308 308 307 307 306 304 305 306 305
84 85 78 98 83 55 67 60 45 66 68 44 92 93 37 74 86 57 68 84 92 78 272 102 70 44 28 355 303 180 151 145 97 97 171 251 214 213 214 205 3 11 4 357 19 11 284 289 67 354 277 280 280 276 275 271 268 275 281 280 277 249 212 212 233 250 268 263 264 286 298 292 294 304 311 315 314 309 309 309 307 307 307 306 305 306 306 306
108 107 83 89 93 75 88 88 74 78 67 50 84 73 33 69 72 53 28 281 152 50 347 360 64 41 31 353 318 216 167 193 111 151 196 177 203 242 227 194 180 22 6 351 32 27 291 291 74 321 287 291 285 271 260 258 267 276 275 276 275 255 233 232 243 250 255 258 265 283 290 289 293 301 307 312 308 306 308 308 307 307 306 306 307 306 305 305
122 122 110 104 96 85 89 87 79 97 78 38 80 69 10 43 81 105 41 352 21 26 357 9 52 23 8 348 336 66 134 319 350 171 190 179 198 236 243 299 140 51 32 26 18 358 327 20 76 307 289 290 277 232 243 252 269 283 285 283 270 249 240 241 248 252 256 262 269 281 287 286 287 299 307 309 307 307 308 309 308 306 305 305 306 304 303 303
119 123 122 114 94 47 71 74 300 109 77 32 58 99 221 47 70 111 93 38 26 24 8 3 13 180 229 320 338 56 40 349 3 64 155 171 12 87 107 14 345 292 11 46 357 330 339 339 135 256 300 299 149 213 281 280 281 280 280 276 252 233 234 240 244 246 249 263 276 282 282 280 295 312 313 309 305 307 307 308 308 305 302 303 303 303 302 300
119 122 121 114 98 20 53 93 285 78 71 34 46 82 105 75 94 183 156 111 88 42 17 358 297 247 239 328 355 23 10 277 185 113 134 142 70 68 69 57 60 349 348 97 262 344 2 312 308 330 305 301 28 318 305 299 293 276 265 264 244 229 235 244 249 251 249 257 272 276 273 286 307 313 309 303 305 309 310 309 307 304 301 301 300 300 300 299
Height
1529 1529 1528 1528 1528 1527 1527 1526 1526 1526 1526 1526 1525 1525 1525 1525 1525 1525 1525 1524 1524 1523 1523 1522 1522 1522 1521 1520 1519 1519 1519 1520 1520 1520 1520 1520 1519 1519 1518 1518 1517 1517 1517 1517 1517 1518 1518 1518 1519 1518 1519 1518 1518 1518 1518 1519 1519 1519 1517 1517 1515 1509 1505 1503 1503 1505 1506 1506 1508 1511 1513 1513 1512 1513 1515 1514 1515 1515 1516 1516 1518 1518 1518 1519 1520 1521 1521 1522
1530 1529 1529 1529 1528 1528 1527 1527 1526 1526 1526 1526 1525 1525 1525 1525 1525 1525 1524 1524 1524 1523 1523 1522 1522 1521 1521 1520 1519 1519 1519 1520 1521 1520 1520 1519 1519 1518 1518 1517 1517 1517 1516 1517 1517 1518 1518 1518 1518 1518 1518 1517 1516 1517 1517 1517 1518 1517 1514 1514 1512 1505 1503 1504 1506 1507 1509 1509 1510 1511 1514 1514 1513 1514 1515 1514 1513 1514 1515 1515 1517 1518 1518 1519 1520 1521 1522 1522
1530 1530 1530 1529 1529 1528 1528 1527 1527 1526 1526 1526 1525 1525 1525 1525 1525 1524 1524 1524 1524 1523 1523 1522 1522 1521 1520 1520 1519 1519 1519 1520 1521 1520 1520 1519 1518 1518 1518 1517 1517 1516 1516 1516 1516 1517 1517 1517 1517 1517 1517 1515 1515 1516 1516 1516 1516 1515 1514 1513 1509 1505 1504 1506 1509 1510 1512 1512 1511 1512 1514 1514 1514 1515 1516 1515 1512 1512 1515 1517 1519 1520 1519 1519 1520 1521 1522 1523
1531 1531 1530 1530 1529 1529 1528 1528 1527 1527 1526 1526 1525 1525 1525 1525 1524 1524 1524 1524 1523 1523 1522 1522 1521 1521 1520 1520 1519 1519 1519 1520 1521 1520 1519 1519 1518 1518 1517 1517 1516 1516 1516 1516 1515 1516 1516 1516 1516 1516 1516 1514 1513 1515 1514 1514 1515 1513 1514 1511 1507 1507 1507 1508 1511 1512 1513 1514 1513 1513 1514 1514 1515 1516 1516 1515 1513 1513 1518 1522 1523 1523 1522 1522 1522 1522 1523 1525
1532 1531 1531 1530 1530 1529 1529 1528 1528 1527 1526 1526 1525 1525 1525 1524 1524 1524 1523 1523 1523 1523 1522 1522 1521 1520 1520 1520 1519 1519 1519 1519 1520 1520 1519 1519 1518 1517 1517 1516 1516 1516 1516 1515 1515 1515 1515 1515 1516 1515 1515 1512 1512 1513 1512 1512 1514 1513 1511 1508 1507 1509 1509 1510 1512 1513 1514 1514 1514 1513 1513 1514 1515 1517 1518 1517 1517 1520 1523 1524 1524 1524 1524 1524 1524 1524 1525 1527
1532 1532 1531 1531 1530 1530 1529 1528 1528 1527 1527 1526 1525 1525 1524 1524 1523 1523 1523 1523 1522 1522 1522 1521 1521 1520 1520 1519 1519 1519 1519 1520 1520 1519 1519 1518 1518 1517 1517 1516 1516 1515 1515 1515 1514 1515 1515 1515 1515 1514 1513 1511 1510 1510 1510 1511 1514 1512 1508 1507 1509 1510 1510 1511 1512 1513 1514 1514 1514 1514 1514 1515 1516 1517 1520 1521 1523 1526 1526 1524 1524 1524 1524 1525 1525 1525 1527 1528
1533 1532 1532 1531 1531 1530 1529 1529 1528 1527 1527 1526 1525 1525 1524 1523 1523 1523 1522 1522 1522 1522 1521 1521 1521 1520 1519 1519 1519 1519 1519 1520 1520 1519 1519 1518 1517 1517 1516 1516 1515 1515 1515 1514 1515 1515 1514 1514 1513 1512 1511 1509 1508 1508 1510 1511 1512 1512 1508 1507 1509 1511 1511 1511 1512 1513 1514 1514 1514 1515 1515 1516 1516 1518 1521 1524 1527 1528 1526 1525 1525 1524 1525 1525 1526 1527 1528 1529
1533 1532 1532 1531 1531 1530 1530 1529 1528 1527 1527 1526 1525 1524 1523 1523 1522 1522 1522 1522 1521 1521 1521 1521 1520 1520 1519 1519 1519 1519 1520 1520 1520 1519 1518 1518 1517 1516 1516 1516 1515 1515 1515 1515 1515 1515 1514 1513 1512 1511 1510 1508 1508 1508 1510 1511 1510 1510 1508 1507 1509 1510 1511 1511 1512 1513 1513 1514 1515 1515 1515 1516 1518 1520 1523 1526 1528 1528 1527 1527 1526 1526 1526 1526 1527 1528 1529 1530
1533 1532 1532 1532 1531 1531 1530 1529 1528 1528 1527 1526 1525 1524 1523 1522 1522 1521 1521 1521 1521 1520 1520 1520 1519 1519 1519 1519 1518 1518 1520 1521 1520 1519 1518 1518 1517 1516 1516 1515 1515 1515 1515 1515 1515 1514 1514 1513 1512 1511 1509 1508 1508 1509 1510 1511 1508 1508 1508 1508 1509 1509 1510 1511 1511 1512 1513 1514 1514 1514 1514 1517 1520 1520 1523 1528 1529 1529 1529 1528 1528 1528 1527 1528 1529 1530 1531 1532
1533 1532 1532 1532 1531 1531 1530 1529 1529 1528 1526 1525 1524 1523 1522 1522 1521 1521 1520 1520 1520 1520 1520 1519 1519 1519 1519 1518 1517 1518 1521 1521 1519 1519 1518 1517 1517 1516 1516 1515 1515 1515 1515 1515 1514 1514 1514 1513 1512 1511 1510 1509 1509 1509 1510 1510 1508 1508 1509 1508 1509 1509 1510 1511 1511 1512 1512 1513 1514 1514 1515 1519 1521 1520 1525 1530 1531 1531 1530 1530 1530 1529 1529 1530 1531 1532 1533 1533
1533 1533 1532 1532 1532 1531 1531 1530 1529 1528 1526 1525 1524 1523 1522 1521 1521 1520 1520 1520 1520 1520 1519 1519 1519 1519 1519 1519 1518 1519 1522 1521 1519 1519 1517 1517 1516 1515 1515 1515 1514 1514 1514 1515 1514 1514 1513 1513 1512 1511 1510 1508 1508 1508 1509 1509 1509 1509 1510 1508 1507 1508 1510 1510 1510 1511 1512 1513 1515 1514 1517 1521 1522 1525 1530 1532 1532 1532 1531 1531 1531 1531 1531 1533 1533 1534 1534 1534
1534 1533 1533 1532 1532 1531 1531 1530 1529 1528 1526 1525 1524 1523 1522 1521 1520 1520 1519 1519 1519 1519 1519 1519 1519 1519 1520 1520 1520 1522 1522 1520 1519 1518 1517 1516 1515 1515 1515 1514 1514 1514 1513 1514 1514 1513 1512 1512 1512 1511 1510 1509 1508 1508 1509 1509 1509 1509 1509 1508 1504 1505 1508 1509 1510 1511 1511 1513 1515 1515 1516 1522 1527 1531 1534 1533 1533 1533 1532 1533 1533 1533 1534 1535 1535 1536 1536 1537
1534 1534 1533 1533 1532 1532 1531 1530 1529 1528 1526 1525 1524 1523 1522 1521 1520 1519 1519 1519 1519 1519 1519 1519 1519 1519 1519 1521 1522 1522 1521 1520 1519 1518 1517 1516 1515 1515 1514 1514 1513 1513 1513 1513 1513 1512 1512 1512 1512 1512 1511 1510 1508 1508 1509 1509 1509 1508 1507 1507 1504 1501 1503 1509 1510 1510 1511 1512 1516 1515 1513 1522 1532 1534 1536 1534 1533 1533 1533 1535 1535 1536 1537 1538 1538 1538 1539 1540
1534 1534 1533 1533 1532 1532 1531 1530 1529 1528 1527 1525 1524 1523 1522 1521 1520 1520 1519 1519 1519 1519 1519 1519 1519 1519 1520 1522 1523 1522 1521 1521 1520 1518 1518 1516 1515 1514 1514 1513 1513 1512 1512 1512 1512 1512 1512 1512 1511 1511 1511 1510 1510 1510 1508 1507 1507 1505 1505 1506 1503 1500 1504 1510 1510 1509 1511 1513 1515 1514 1512 1525 1536 1536 1537 1536 1535 1535 1535 1537 1538 1539 1540 1541 1541 1541 1542 1543
1535 1534 1533 1533 1532 1532 1531 1530 1529 1528 1527 1525 1524 1523 1522 1521 1521 1520 1519 1519 1519 1519 1519 1519 1519 1520 1521 1523 1523 1523 1522 1521 1520 1519 1517 1516 1515 1514 1514 1513 1512 1512 1512 1511 1512 1511 1512 1512 1511 1511 1511 1511 1510 1508 1505 1502 1503 1503 1504 1504 1500 1501 1505 1509 1512 1511 1512 1514 1514 1513 1514 1526 1537 1538 1539 1537 1537 1537 1538 1540 1541 1542 1543 1543 1544 1545 1545 1546
1535 1534 1534 1533 1533 1532 1531 1530 1529 1528 1527 1526 1524 1524 1523 1522 1521 1520 1520 1520 1519 1519 1519 1520 1520 1520 1522 1524 1524 1523 1523 1522 1521 1519 1517 1516 1515 1514 1513 1512 1512 1512 1511 1512 1511 1511 1512 1511 1511 1511 1510 1509 1508 1507 1504 1499 1499 1501 1504 1504 1502 1505 1506 1507 1513 1515 1515 1515 1513 1512 1518 1529 1538 1541 1541 1540 1540 1540 1540 1543 1544 1545 1546 1546 1547 1548 1548 1549
1536 1535 1534 1534 1533 1532 1532 1531 1530 1528 1527 1526 1525 1524 1523 1522 1521 1521 1521 1521 1520 1520 1520 1521 1521 1521 1522 1525 1525 1524 1524 1523 1521 1519 1517 1515 1514 1513 1513 1512 1512 1512 1512 1512 1512 1512 1512 1512 1512 1510 1508 1508 1507 1506 1505 1503 1503 1503 1505 1506 1506 1509 1510 1509 1514 1516 1516 1516 1514 1516 1526 1537 1541 1543 1543 1543 1543 1543 1543 1545 1547 1548 1549 1549 1550 1550 1551 1552
1536 1535 1535 1534 1533 1533 1532 1531 1530 1529 1528 1526 1525 1525 1524 1523 1522 1522 1522 1522 1521 1521 1521 1522 1522 1522 1524 1526 1526 1526 1525 1523 1521 1519 1517 1516 1514 1513 1513 1513 1512 1512 1512 1512 1512 1512 1512 1511 1510 1507 1508 1512 1513 1512 1513 1515 1516 1515 1513 1513 1510 1510 1510 1511 1516 1519 1518 1516 1516 1520 1530 1540 1543 1544 1545 1546 1546 1545 1547 1549 1549 1551 1551 1552 1553 1553 1554 1554
1536 1535 1535 1534 1533 1532 1532 1531 1530 1529 1528 1526 1525 1525 1525 1525 1524 1524 1523 1522 1522 1523 1526 1527 1525 1526 1529 1529 1528 1527 1525 1524 1522 1520 1519 1516 1514 1514 1513 1513 1513 1513 1513 1512 1513 1513 1512 1512 1512 1514 1518 1521 1521 1521 1521 1522 1522 1520 1519 1519 1517 1514 1511 1513 1518 1521 1520 1517 1518 1523 1532 1541 1544 1545 1547 1548 1549 1549 1550 1551 1552 1553 1554 1554 1555 1556 1557 1556
1536 1535 1535 1534 1533 1532 1532 1531 1529 1528 1527 1526 1526 1525 1525 1525 1525 1527 1526 1524 1526 1529 1532 1532 1531 1531 1532 1531 1529 1527 1525 1524 1524 1522 1519 1516 1515 1515 1514 1514 1513 1513 1513 1513 1514 1514 1514 1517 1523 1527 1529 1528 1526 1526 1525 1523 1523 1522 1521 1519 1516 1515 1513 1514 1518 1521 1521 1520 1523 1530 1536 1542 1546 1548 1549 1550 1550 1551 1552 1553 1554 1555 1556 1557 1557 1558 1559 1559
1536 1535 1535 1534 1533 1532 1531 1530 1529 1528 1527 1526 1526 1525 1525 1524 1524 1527 1528 1528 1531 1532 1533 1533 1532 1533 1533 1531 1530 1527 1526 1525 1525 1523 1519 1518 1516 1515 1515 1514 1513 1513 1514 1516 1517 1516 1517 1524 1532 1532 1531 1531 1529 1528 1526 1525 1524 1522 1520 1517 1513 1516 1517 1516 1518 1521 1520 1520 1526 1533 1538 1544 1549 1550 1552 1552 1552 1553 1554 1555 1556 1557 1558 1559 1560 1560 1560 1561
1536 1535 1534 1533 1533 1532 1531 1530 1529 1528 1527 1526 1526 1525 1525 1524 1524 1526 1526 1530 1534 1533 1533 1534 1533 1533 1533 1531 1530 1529 1528 1527 1526 1524 1521 1519 1517 1516 1516 1515 1514 1516 1515 1515 1515 1515 1521 1530 1534 1532 1532 1532 1528 1527 1525 1524 1523 1519 1517 1516 1515 1517 1519 1516 1518 1521 1518 1518 1525 1531 1538 1547 1551 1553 1554 1555 1556 1557 1557 1558 1558 1559 1560 1560 1561 1562 1562 1563
1536 1535 1534 1533 1532 1531 1530 1529 1529 1528 1527 1527 1526 1525 1525 1525 1525 1526 1525 1528 1533 1534 1534 1534 1534 1534 1533 1532 1531 1530 1530 1530 1528 1526 1523 1521 1520 1519 1519 1518 1517 1518 1517 1516 1516 1518 1527 1534 1534 1533 1533 1530 1527 1526 1524 1520 1519 1520 1521 1522 1521 1521 1522 1521 1519 1518 1518 1520 1522 1527 1538 1548 1551 1554 1557 1558 1559 1560 1560 1561 1562 1561 1562 1562 1563 1564 1564 1564
1535 1534 1534 1533 1532 1531 1530 1529 1529 1528 1528 1527 1526 1525 1525 1525 1525 1526 1526 1526 1530 1534 1535 1535 1534 1534 1534 1533 1533 1531 1531 1532 1531 1529 1526 1524 1523 1522 1522 1522 1520 1521 1524 1523 1524 1528 1535 1537 1535 1534 1532 1528 1527 1528 1528 1523 1518 1522 1527 1527 1526 1525 1525 1524 1520 1517 1518 1522 1523 1524 1530 1541 1548 1552 1556 1560 1560 1561 1562 1563 1564 1564 1564 1565 1565 1565 1565 1565
1535 1534 1534 1532 1532 1531 1529 1529 1529 1528 1528 1526 1526 1525 1525 1526 1525 1525 1526 1526 1530 1534 1534 1535 1535 1535 1536 1534 1533 1533 1533 1533 1533 1532 1529 1527 1525 1524 1524 1525 1523 1525 1528 1527 1527 1532 1537 1537 1536 1533 1530 1528 1529 1530 1534 1531 1520 1520 1528 1530 1529 1529 1527 1525 1522 1518 1514 1518 1523 1521 1519 1530 1546 1551 1554 1560 1561 1561 1564 1564 1565 1566 1566 1566 1566 1566 1566 1566
1535 1534 1533 1532 1531 1530 1529 1529 1528 1528 1527 1526 1526 1525 1525 1525 1525 1526 1525 1523 1531 1538 1537 1536 1537 1538 1538 1536 1535 1533 1533 1533 1535 1534 1531 1530 1528 1526 1525 1526 1526 1529 1531 1529 1530 1535 1539 1538 1536 1533 1530 1529 1531 1532 1536 1535 1525 1521 1526 1530 1530 1531 1529 1525 1523 1520 1512 1513 1521 1519 1517 1525 1542 1552 1554 1559 1562 1563 1565 1565 1566 1567 1567 1567 1567 1567 1567 1566
1535 1534 1533 1532 1531 1530 1530 1529 1528 1528 1526 1526 1525 1524 1524 1524 1524 1527 1526 1526 1535 1542 1541 1539 1540 1541 1540 1540 1536 1534 1536 1537 1537 1536 1534 1532 1530 1529 1528 1529 1529 1531 1533 1530 1532 1540 1543 1541 1539 1536 1533 1532 1535 1537 1538 1538 1532 1526 1528 1531 1531 1530 1529 1526 1524 1519 1512 1515 1518 1517 1518 1518 1529 1549 1556 1557 1562 1564 1565 1567 1567 1567 1567 1567 1568 1567 1567 1567
1534 1533 1532 1531 1531 1530 1529 1529 1528 1527 1526 1526 1524 1524 1524 1523 1525 1526 1526 1537 1546 1545 1544 1544 1543 1544 1543 1542 1540 1539 1542 1541 1538 1538 1536 1534 1533 1531 1531 1533 1533 1532 1531 1529 1535 1546 1547 1545 1545 1541 1537 1537 1540 1543 1540 1539 1535 1529 1529 1530 1531 1531 1529 1527 1522 1515 1512 1515 1515 1516 1520 1517 1525 1548 1556 1553 1557 1562 1565 1567 1566 1567 1568 1567 1568 1568 1567 1566
1534 1533 1532 1531 1530 1529 1529 1528 1527 1526 1526 1525 1524 1524 1523 1523 1527 1525 1525 1542 1552 1547 1547 1546 1544 1546 1545 1543 1543 1543 1544 1542 1541 1542 1539 1536 1535 1534 1534 1536 1535 1534 1532 1530 1538 1548 1548 1548 1548 1545 1543 1544 1544 1544 1541 1541 1537 1531 1530 1530 1531 1531 1527 1525 1520 1514 1513 1515 1517 1521 1525 1524 1528 1542 1547 1544 1550 1558 1562 1565 1566 1567 1567 1567 1567 1567 1567 1566
1534 1533 1532 1531 1529 1529 1528 1527 1526 1526 1525 1524 1524 1524 1524 1525 1527 1526 1534 1548 1552 1548 1549 1548 1548 1550 1547 1544 1545 1545 1545 1545 1545 1543 1540 1540 1539 1536 1536 1537 1536 1536 1538 1538 1542 1548 1549 1550 1549 1548 1549 1548 1547 1544 1541 1541 1537 1532 1528 1524 1525 1525 1522 1520 1515 1512 1513 1517 1522 1525 1526 1528 1530 1539 1546 1548 1553 1558 1560 1563 1565 1566 1566 1567 1567 1566 1566 1565
1534 1533 1532 1530 1530 1529 1527 1527 1526 1525 1525 1524 1524 1524 1525 1526 1523 1530 1547 1554 1551 1550 1550 1550 1552 1552 1550 1549 1549 1548 1548 1547 1547 1545 1543 1542 1541 1539 1538 1539 1540 1536 1535 1539 1544 1547 1547 1548 1548 1551 1552 1548 1545 1541 1540 1540 1535 1532 1527 1519 1517 1517 1516 1516 1511 1512 1518 1521 1523 1524 1526 1527 1525 1536 1551 1556 1558 1559 1559 1561 1563 1564 1565 1565 1565 1565 1564 1564
1534 1533 1532 1530 1530 1528 1527 1527 1525 1525 1525 1523 1524 1525 1524 1526 1533 1545 1553 1553 1553 1555 1555 1556 1555 1553 1552 1552 1552 1553 1551 1549 1549 1548 1547 1545 1545 1546 1547 1550 1550 1541 1534 1536 1541 1544 1548 1550 1550 1551 1551 1549 1544 1538 1537 1537 1534 1533 1529 1524 1524 1522 1525 1528 1520 1520 1526 1523 1522 1523 1527 1526 1526 1542 1554 1555 1558 1559 1558 1560 1561 1562 1564 1563 1564 1563 1562 1562
1535 1533 1532 1531 1530 1528 1527 1527 1525 1525 1524 1523 1525 1525 1523 1530 1549 1560 1557 1552 1557 1560 1559 1559 1557 1555 1553 1552 1554 1556 1553 1553 1552 1550 1550 1548 1548 1551 1553 1556 1556 1550 1542 1538 1538 1540 1545 1549 1550 1550 1552 1552 1549 1545 1544 1542 1539 1539 1537 1535 1537 1538 1544 1545 1533 1530 1533 1527 1522 1524 1530 1530 1532 1547 1556 1555 1558 1559 1559 1561 1561 1562 1563 1562 1562 1562 1561 1561
1535 1533 1532 1531 1529 1528 1527 1526 1526 1525 1524 1524 1524 1524 1529 1543 1559 1565 1560 1557 1560 1561 1560 1560 1558 1555 1554 1555 1557 1557 1554 1555 1555 1552 1551 1550 1551 1554 1556 1557 1558 1556 1551 1544 1544 1544 1544 1548 1553 1555 1557 1556 1554 1554 1555 1553 1546 1544 1543 1541 1543 1548 1554 1552 1541 1540 1541 1534 1527 1527 1532 1530 1530 1544 1554 1555 1557 1559 1559 1561 1561 1562 1562 1562 1562 1561 1561 1560
1536 1534 1533 1531 1530 1529 1527 1526 1526 1525 1525 1525 1525 1528 1541 1556 1561 1561 1562 1562 1562 1562 1560 1560 1558 1553 1552 1555 1558 1558 1556 1556 1556 1555 1556 1556 1559 1562 1562 1563 1563 1562 1557 1550 1551 1550 1545 1552 1560 1560 1560 1559 1557 1557 1557 1554 1548 1545 1543 1543 1547 1552 1554 1551 1544 1542 1544 1542 1534 1526 1527 1531 1539 1550 1554 1555 1557 1558 1559 1560 1560 1561 1561 1561 1561 1560 1559 1558
1536 1535 1534 1532 1531 1529 1528 1527 1526 1526 1527 1525 1529 1542 1556 1563 1564 1563 1566 1567 1566 1566 1562 1558 1557 1553 1552 1553 1556 1558 1558 1557 1555 1554 1558 1562 1565 1567 1568 1569 1568 1567 1565 1559 1558 1555 1549 1554 1562 1561 1561 1560 1559 1559 1556 1554 1551 1547 1546 1550 1554 1555 1555 1552 1546 1540 1540 1542 1532 1521 1523 1533 1543 1550 1552 1554 1556 1556 1558 1559 1559 1559 1559 1560 1559 1558 1558 1556
1537 1536 1535 1533 1531 1530 1530 1529 1527 1528 1527 1525 1536 1555 1565 1567 1569 1569 1570 1569 1568 1568 1561 1556 1559 1561 1558 1555 1557 1560 1559 1557 1555 1553 1556 1561 1566 1571 1572 1571 1570 1570 1570 1567 1564 1563 1559 1556 1559 1560 1560 1560 1561 1560 1558 1557 1556 1552 1553 1556 1555 1554 1554 1552 1550 1547 1544 1542 1532 1523 1527 1532 1532 1540 1551 1554 1554 1554 1554 1555 1556 1557 1558 1558 1558 1557 1556 1554
1538 1537 1536 1535 1533 1533 1532 1531 1531 1530 1528 1532 1549 1563 1566 1568 1571 1571 1571 1571 1569 1568 1562 1559 1562 1565 1562 1559 1562 1564 1561 1557 1556 1554 1557 1561 1567 1576 1576 1573 1573 1570 1571 1571 1565 1565 1563 1557 1557 1558 1558 1559 1560 1559 1557 1557 1557 1556 1558 1558 1555 1556 1554 1550 1552 1555 1553 1550 1539 1529 1531 1531 1526 1534 1547 1549 1548 1550 1551 1551 1554 1555 1556 1556 1556 1555 1554 1552
1538 1538 1538 1538 1536 1535 1533 1533 1533 1531 1530 1540 1556 1564 1566 1570 1573 1572 1572 1572 1570 1567 1564 1565 1567 1564 1564 1565 1566 1566 1564 1562 1560 1557 1560 1564 1569 1577 1578 1576 1575 1572 1572 1571 1567 1566 1564 1558 1555 1556 1557 1558 1556 1556 1557 1558 1558 1558 1558 1558 1557 1558 1557 1555 1557 1557 1556 1555 1548 1540 1536 1529 1525 1534 1543 1544 1546 1549 1549 1550 1552 1553 1554 1555 1554 1553 1552 1551
1539 1539 1540 1540 1538 1538 1537 1534 1533 1533 1538 1550 1559 1564 1569 1571 1572 1573 1573 1572 1571 1569 1567 1568 1568 1566 1567 1569 1568 1568 1566 1564 1564 1562 1564 1569 1572 1577 1580 1579 1577 1575 1572 1571 1569 1569 1564 1558 1555 1553 1554 1556 1556 1559 1562 1562 1562 1561 1560 1563 1563 1560 1557 1558 1558 1557 1558 1559 1555 1552 1543 1529 1531 1542 1544 1545 1548 1549 1550 1551 1551 1553 1554 1553 1552 1551 1550 1548
1540 1540 1542 1541 1539 1540 1538 1536 1539 1544 1550 1558 1562 1566 1571 1571 1572 1574 1573 1573 1573 1572 1571 1570 1569 1569 1570 1569 1569 1570 1567 1565 1566 1566 1568 1572 1573 1576 1580 1581 1580 1577 1574 1570 1570 1572 1567 1561 1558 1553 1550 1553 1560 1567 1568 1567 1566 1565 1564 1566 1567 1565 1563 1562 1559 1558 1562 1562 1558 1559 1551 1536 1537 1545 1545 1546 1550 1550 1551 1552 1551 1552 1551 1550 1550 1549 1547 1546
1540 1543 1545 1543 1542 1542 1538 1542 1551 1554 1556 1563 1567 1569 1572 1572 1573 1574 1573 1574 1573 1572 1573 1572 1572 1572 1572 1571 1571 1571 1569 1568 1569 1570 1572 1575 1577 1578 1580 1582 1581 1579 1576 1572 1572 1576 1574 1567 1561 1555 1554 1559 1565 1568 1569 1569 1568 1567 1567 1567 1567 1568 1568 1567 1564 1561 1563 1562 1558 1561 1556 1542 1540 1545 1546 1547 1549 1549 1551 1551 1550 1550 1549 1548 1547 1545 1545 1543
1543 1545 1546 1545 1545 1543 1541 1549 1559 1560 1563 1570 1571 1571 1573 1573 1573 1574 1574 1574 1573 1573 1573 1573 1574 1574 1574 1574 1573 1571 1572 1573 1573 1573 1574 1576 1579 1581 1582 1582 1581 1579 1578 1575 1574 1576 1574 1569 1562 1555 1554 1563 1569 1570 1570 1570 1569 1567 1566 1567 1569 1571 1573 1573 1572 1571 1570 1563 1557 1559 1553 1540 1540 1546 1546 1547 1549 1550 1551 1550 1549 1548 1547 1546 1545 1543 1542 1541
1545 1547 1547 1546 1546 1545 1544 1552 1560 1564 1568 1571 1571 1572 1573 1574 1574 1574 1574 1574 1574 1574 1573 1574 1576 1575 1575 1576 1574 1573 1575 1575 1575 1576 1576 1577 1580 1582 1582 1582 1581 1579 1579 1578 1577 1577 1572 1568 1565 1557 1552 1557 1562 1563 1565 1566 1567 1564 1564 1569 1572 1574 1579 1580 1576 1576 1574 1561 1557 1561 1551 1535 1538 1545 1544 1545 1548 1549 1549 1548 1547 1546 1544 1543 1542 1541 1540 1539
1546 1549 1550 1549 1548 1547 1549 1555 1560 1564 1568 1569 1571 1573 1573 1574 1576 1576 1576 1576 1576 1576 1574 1575 1577 1576 1576 1576 1574 1575 1575 1574 1575 1578 1578 1579 1580 1582 1582 1582 1581 1580 1580 1580 1579 1578 1573 1569 1568 1563 1559 1557 1555 1556 1559 1561 1562 1560 1563 1571 1574 1575 1580 1578 1573 1572 1567 1557 1557 1561 1548 1533 1535 1541 1540 1542 1544 1544 1545 1544 1544 1544 1542 1541 1540 1539 1538 1537
1547 1550 1554 1554 1553 1552 1555 1560 1561 1563 1566 1567 1570 1574 1573 1574 1577 1577 1576 1577 1577 1577 1576 1576 1577 1576 1576 1575 1574 1575 1576 1575 1576 1578 1581 1581 1580 1582 1582 1582 1582 1581 1581 1580 1579 1578 1575 1571 1571 1572 1569 1564 1560 1560 1561 1563 1563 1560 1562 1569 1572 1575 1579 1579 1574 1567 1560 1559 1557 1552 1544 1537 1535 1538 1539 1539 1540 1541 1542 1542 1542 1542 1540 1539 1538 1537 1536 1535
1549 1554 1557 1557 1557 1558 1560 1563 1564 1564 1566 1566 1570 1574 1574 1574 1576 1576 1577 1577 1577 1577 1577 1577 1577 1576 1575 1576 1575 1575 1576 1577 1576 1580 1584 1583 1581 1582 1582 1582 1582 1581 1580 1580 1579 1579 1574 1570 1576 1580 1575 1570 1566 1564 1563 1564 1565 1562 1562 1565 1568 1572 1577 1579 1574 1561 1558 1564 1555 1540 1540 1543 1538 1537 1539 1539 1540 1542 1542 1541 1541 1539 1538 1537 1536 1535 1534 1532
1552 1557 1560 1559 1560 1563 1564 1566 1567 1567 1567 1568 1571 1575 1574 1574 1575 1576 1576 1577 1577 1577 1577 1576 1577 1578 1577 1577 1576 1575 1576 1576 1578 1582 1585 1584 1583 1582 1581 1582 1582 1580 1581 1580 1579 1580 1574 1571 1580 1585 1577 1570 1567 1564 1562 1563 1563 1561 1562 1564 1564 1567 1572 1574 1570 1561 1561 1564 1552 1539 1542 1544 1539 1538 1539 1539 1541 1542 1541 1540 1539 1538 1537 1535 1534 1533 1532 1530
1554 1558 1560 1560 1562 1566 1567 1568 1568 1568 1568 1569 1571 1575 1575 1574 1576 1577 1577 1577 1576 1577 1576 1576 1577 1578 1578 1578 1576 1575 1576 1576 1578 1583 1585 1584 1585 1582 1579 1581 1580 1580 1581 1579 1580 1582 1576 1573 1582 1587 1579 1569 1563 1561 1563 1564 1563 1561 1561 1561 1560 1562 1564 1566 1564 1561 1561 1558 1549 1545 1545 1542 1540 1540 1539 1540 1542 1541 1540 1539 1537 1536 1535 1533 1532 1530 1529 1528
1554 1556 1559 1561 1564 1568 1569 1569 1569 1568 1569 1569 1571 1575 1577 1576 1576 1578 1579 1578 1577 1577 1577 1577 1578 1579 1579 1578 1577 1576 1578 1577 1578 1581 1582 1583 1584 1582 1580 1580 1580 1580 1580 1580 1582 1582 1577 1577 1584 1587 1578 1565 1560 1563 1565 1564 1562 1559 1557 1557 1557 1559 1560 1561 1560 1559 1558 1555 1549 1549 1548 1542 1539 1538 1537 1539 1540 1539 1538 1537 1535 1534 1533 1531 1529 1528 1526 1526
1554 1556 1558 1559 1564 1569 1569 1569 1569 1568 1569 1570 1572 1576 1577 1576 1577 1578 1579 1580 1579 1579 1579 1578 1579 1579 1578 1579 1578 1578 1580 1580 1579 1580 1581 1582 1581 1581 1581 1580 1581 1581 1580 1582 1585 1582 1579 1580 1582 1583 1574 1559 1558 1564 1561 1559 1560 1560 1559 1557 1555 1556 1557 1556 1555 1555 1555 1553 1551 1552 1549 1541 1536 1536 1537 1538 1539 1538 1537 1535 1534 1532 1531 1529 1527 1525 1525 1525
1556 1558 1558 1558 1564 1570 1570 1570 1569 1568 1571 1574 1575 1576 1577 1577 1578 1578 1578 1580 1581 1580 1580 1580 1580 1579 1577 1578 1579 1579 1580 1581 1581 1581 1581 1582 1582 1582 1582 1581 1582 1582 1581 1584 1586 1585 1585 1581 1576 1579 1573 1558 1557 1561 1559 1559 1557 1551 1552 1552 1549 1550 1552 1552 1551 1550 1550 1551 1551 1548 1542 1535 1534 1535 1536 1536 1536 1536 1535 1533 1532 1530 1528 1527 1525 1524 1523 1523